| time (UTC) | temp F | wind direction | speed knots | gust knots | rain 1hr in | rain 24hr in | rain mn in | humidity % | barometer mb |
| 20260505053103 | 63 | 0 | 1.7 | 0.0 | 0.00 | 0.00 | 0.00 | 67 | 1009.0 |
| 20260505051852 | 59 | 270 | 1.7 | 0.0 | 0.00 | 0.00 | 0.00 | 77 | |
| 20260505050210 | 61 | 0 | 0.0 | 0.0 | 0.00 | 0.00 | 0.00 | 72 | 1009.0 |
| 20260505033103 | 57 | 270 | 4.3 | 0.0 | 0.00 | 0.00 | 0.00 | 87 | 1009.0 |
| 20260505031852 | 57 | 200 | 4.3 | 0.0 | 0.00 | 0.00 | 0.00 | 87 | |
| 20260505030103 | 59 | 200 | 2.6 | 0.0 | 0.00 | 0.00 | 0.00 | 77 | 1009.0 |
| 20260505023102 | 57 | 0 | 1.7 | 0.0 | 0.00 | 0.00 | 0.00 | 87 | 1009.0 |
| 20260505021851 | 59 | 310 | 1.7 | 0.0 | 0.00 | 0.00 | 0.00 | 72 | |
| 20260505020103 | 59 | 0 | 1.7 | 0.0 | 0.00 | 0.00 | 0.00 | 77 | 1009.0 |
| 20260505013102 | 59 | 320 | 2.6 | 0.0 | 0.00 | 0.00 | 0.00 | 77 | 1009.0 |
| 20260505011854 | 61 | 20 | 1.7 | 0.0 | 0.00 | 0.00 | 0.00 | 67 | |
| 20260505010103 | 61 | 0 | 1.7 | 0.0 | 0.00 | 0.00 | 0.00 | 72 | 1009.0 |
| 20260505003103 | 61 | 0 | 2.6 | 0.0 | 0.00 | 0.00 | 0.00 | 72 | 1010.0 |
| 20260505002011 | 61 | 160 | 5.2 | 0.0 | 0.00 | 0.00 | 0.00 | 72 | 1010.0 |
| 20260505001852 | 63 | 70 | 13.9 | 0.0 | 0.00 | 0.00 | 0.00 | 63 | |
| 20260504235010 | 61 | 90 | 12.2 | 0.0 | 0.00 | 0.00 | 0.00 | 72 | 1010.0 |
| 20260504233103 | 59 | 100 | 12.2 | 0.0 | 0.00 | 0.00 | 0.00 | 82 | 1011.0 |
| 20260504231909 | 63 | 280 | 4.3 | 0.0 | 0.00 | 0.00 | 0.00 | 63 | |
| 20260504231503 | 61 | 120 | 7.8 | 0.0 | 0.00 | 0.00 | 0.00 | 72 | 1012.0 |
| 20260504230211 | 61 | 260 | 7.0 | 0.0 | 0.00 | 0.00 | 0.00 | 72 | 1012.0 |
| 20260504223102 | 63 | 210 | 13.0 | 0.0 | 0.00 | 0.00 | 0.00 | 63 | 1012.0 |
| 20260504222103 | 63 | 0 | 1.7 | 0.0 | 0.00 | 0.00 | 0.00 | 59 | 1011.0 |
| 20260504221853 | 64 | 40 | 4.3 | 0.0 | 0.00 | 0.00 | 0.00 | 55 | |
| 20260504220209 | 64 | 30 | 4.3 | 0.0 | 0.00 | 0.00 | 0.00 | 55 | 1011.0 |
| 20260504213103 | 64 | 60 | 4.3 | 0.0 | 0.00 | 0.00 | 0.00 | 52 | 1011.0 |
| 20260504211851 | 64 | 40 | 1.7 | 0.0 | 0.00 | 0.00 | 0.00 | 52 | |
| 20260504203103 | 64 | 60 | 1.7 | 0.0 | 0.00 | 0.00 | 0.00 | 52 | 1011.0 |
| 20260504201850 | 64 | 60 | 1.7 | 0.0 | 0.00 | 0.00 | 0.00 | 48 | |
| 20260504193102 | 66 | 70 | 4.3 | 0.0 | 0.00 | 0.00 | 0.00 | 48 | 1011.0 |
| 20260504191853 | 66 | 60 | 4.3 | 0.0 | 0.00 | 0.00 | 0.00 | 48 | |
| 20260504190212 | 68 | 50 | 2.6 | 0.0 | 0.00 | 0.00 | 0.00 | 45 | 1011.0 |
| 20260504183103 | 70 | 70 | 4.3 | 0.0 | 0.00 | 0.00 | 0.00 | 40 | 1011.0 |
| 20260504181854 | 68 | 50 | 1.7 | 0.0 | 0.00 | 0.00 | 0.00 | 42 | |
| 20260504180103 | 70 | 50 | 2.6 | 0.0 | 0.00 | 0.00 | 0.00 | 40 | 1011.0 |
| 20260504173103 | 72 | 60 | 1.7 | 0.0 | 0.00 | 0.00 | 0.00 | 37 | 1011.0 |
| 20260504171854 | 70 | 50 | 1.7 | 0.0 | 0.00 | 0.00 | 0.00 | 43 | |
| 20260504170103 | 72 | 30 | 2.6 | 0.0 | 0.00 | 0.00 | 0.00 | 37 | 1011.0 |
| 20260504160212 | 73 | 20 | 4.3 | 0.0 | 0.00 | 0.00 | 0.00 | 35 | 1012.0 |
| 20260504150103 | 73 | 90 | 4.3 | 0.0 | 0.00 | 0.00 | 0.00 | 35 | 1012.0 |
| 20260504130211 | 72 | 30 | 5.2 | 0.0 | 0.00 | 0.00 | 0.00 | 37 | 1013.0 |
| 20260504120104 | 72 | 0 | 1.7 | 0.0 | 0.00 | 0.00 | 0.00 | 37 | 1013.0 |
| 20260504110211 | 68 | 320 | 2.6 | 0.0 | 0.00 | 0.00 | 0.00 | 42 | 1014.0 |
| 20260504100103 | 66 | 310 | 4.3 | 0.0 | 0.00 | 0.00 | 0.00 | 42 | 1014.0 |
| 20260504081852 | 63 | 320 | 4.3 | 0.0 | 0.00 | 0.00 | 0.00 | 48 | |
| 20260504080211 | 61 | 20 | 2.6 | 0.0 | 0.00 | 0.00 | 0.00 | 51 | 1014.0 |
| 20260504070104 | 57 | 320 | 5.2 | 0.0 | 0.00 | 0.00 | 0.00 | 58 | 1014.0 |
| 20260504060211 | 55 | 310 | 4.3 | 0.0 | 0.00 | 0.00 | 0.00 | 62 | 1013.0 |